Powrót do katalogu

ATLAS 14E R/B

AktywnyHEO
NORAD 15272·ROCKET BODY·🇺🇸 United States

Wystrzelony Sep 8, 1984 z Vandenberg Space Force Base

Loading…

Następne Przeloty (najbliższe 24 godziny)

TLE

ŚwieżeSource: Space-Track

Epoka: Sep 13, 2026, 04:33 UTC

1 15272U 84097B   26256.19004220 -.00000011  00000-0  00000-0 0  9997
2 15272  64.9645 273.6880 5172621 282.0338  81.2882  3.90011429598366

Śledź ATLAS 14E R/B w czasie rzeczywistym z AllMySat

Download on the App Store